Location: Unspecified
(0.0000°N, 0.0000°E)
Time: 18:01:49
(UTC+00:00)

Vanguard 2 - Pass Details

Date: 16 December 2017
Orbit: 552 x 2940 km, 32.9° (Epoch: 16 January)

Event Time Altitude Azimuth Distance (km) Brightness Sun altitude
Rises 11:12:15 0° 241° (WSW) 6,780 12.4 64.4°
Reaches altitude 10° 11:17:01 10° 243° (WSW) 5,672 12.1 64.8°
Maximum altitude 11:33:35 65° 322° (NW) 2,417 10.8 66.1°
Drops below altitude 10° 11:44:22 10° 43° (NE) 3,842 11.1 66.5°
Sets 11:46:58 0° 46° (NE) 4,553 11.3 66.6°
